Weather in Batna

Algeria     35°33′11″N   6°10′20″E
temp.,
°C
wind,
m/s
gust,
m/s
humid.,
%
clouds,
%
prec.,
mm/h
press.,
hPa
HPBL,
m
17 april, sat
sat1701:00+2nne3399100 19.1 1014236
04:00+2ne2599100 3.5 1013264
07:00+3ne3696100 3.7 1014600
10:00+4nne2596100 0.3 1015745
13:00+3nne129391 1.3 1016263
16:00+7n446890 1.1 1013936
19:00+4nne228679 2.1 1016381
22:00+4n118761 0.3 1018219
18 april, sun
sun1801:00+3sw22875 0.3 101724
04:00+2wsw33839 0.1 101729
07:00+2n11878 0.3 101980
10:00+6n235811 0.0 10191270
13:00+9nnw5540100 0.1 10172345
16:00+8nnw874391 0.1 10171720
19:00+5nne346575 0.3 1020687
22:00+3nne22765 0.0 102337
19 april, mon
mon1901:00+2ne11843 0.0 102318
04:00+1ssw22790 0.0 102210
07:00+4ssw22547 0.0 102247
10:00+9wsw45285 0.0 1020927
13:00+12wsw66340 0.0 10191320
16:00+12wsw673573 0.0 10171248
19:00+9sw3341100 0.0 101828
22:00+8ssw3344100 0.0 101820
20 april, tue
tue2001:00+7ssw44435 0.0 101634
04:00+7sw574660 0.0 101695
07:00+8ssw5134364 0.0 1015445
10:00+13sw9133263 0.0 10141233
13:00+16sw914395 0.0 10131947
16:00+15wsw8113723 0.0 10121821
19:00+12sw4641100 0.0 1013133
22:00+11ssw3466100 0.3 1014110
21 april, wed
wed2101:00+10w227099 0.4 101431
04:00+9ssw2267100 0.0 101311
07:00+11ssw226096 0.0 101341
10:00+15w364261 0.0 10131225
13:00+18w483229 0.0 10112434
16:00+18nw2534100 0.0 10111953
19:00+13ne566225 0.0 1013260
22:00+10ne4581100 0.0 1017417